Cloud_Cover
99 100 100 100 100 100 100 100 100 100 100 100 100 100 100 100 100 100 100 100 84 100 100 100 100 64 100 100 100 87 99 8 8
100 100 100 100 100 100 100 100 100 100 100 100 100 100 100 100 100 100 100 100 100 100 100 66 93 98 100 100 100 92 5 5 66
97 100 100 100 100 100 100 100 94 100 97 100 100 100 100 100 100 100 100 100 100 99 100 92 93 83 100 100 100 97 21 6 21
100 100 100 100 100 100 100 100 100 100 100 94 63 96 100 100 100 100 100 97 100 100 100 100 100 96 100 100 100 100 100 32 19
100 100 100 100 100 100 100 100 100 100 100 100 38 100 100 23 83 100 100 100 100 100 100 100 100 99 100 100 100 100 100 100 100
100 100 100 100 100 100 100 100 100 100 100 100 100 100 100 52 92 69 100 100 100 100 100 100 100 100 100 100 100 100 100 100 97
100 100 100 44 43 100 100 100 100 100 79 95 100 100 78 67 92 42 14 100 100 99 100 100 100 100 100 100 100 100 100 100 100
49 100 100 100 98 21 34 84 77 22 5 44 95 92 100 100 100 90 5 9 100 71 100 100 100 100 100 100 100 84 81 100 100
0 0 36 6 7 2 5 5 5 63 13 3 95 100 100 100 100 84 5 8 79 96 100 100 100 100 100 97 61 48 5 59 17
0 0 30 67 0 38 92 52 100 100 45 87 11 100 100 100 100 31 15 100 26 8 5 99 86 100 100 100 36 5 5 5 5
0 0 1 1 16 91 100 77 96 100 8 0 2 87 100 100 100 81 100 100 98 26 14 6 24 87 100 97 13 5 5 5 4
0 0 0 0 99 98 67 87 100 100 99 0 2 10 25 100 100 70 8 17 4 9 45 5 6 83 100 61 14 3 4 4 4
0 0 0 7 25 100 72 17 53 32 94 0 0 6 4 100 1 100 100 6 0 3 6 3 50 14 16 42 95 39 11 15 1
0 0 0 0 6 90 98 62 84 100 94 1 0 0 96 91 100 93 90 100 24 0 0 0 34 96 9 36 51 4 7 2 6
0 0 0 0 0 43 18 98 100 100 99 100 17 0 91 94 100 100 100 100 100 13 0 0 0 58 64 11 40 71 40 17 25
0 0 0 0 1 100 100 100 100 100 100 100 100 10 0 2 51 100 100 100 100 100 56 0 0 4 68 47 44 33 100 41 0
0 0 14 6 0 78 99 100 100 100 100 100 100 32 1 0 0 0 0 0 14 36 53 2 0 0 6 100 98 53 100 27 0
0 0 0 14 0 0 96 100 100 100 100 100 86 61 1 0 0 0 0 0 0 0 0 4 0 0 0 40 75 97 100 100 94
86 0 0 0 0 0 58 100 100 100 100 100 100 100 77 38 0 0 0 0 0 0 0 0 0 0 0 0 97 75 100 100 100
100 30 5 1 0 0 0 55 100 100 100 100 100 100 100 100 100 35 0 0 0 0 0 0 0 0 0 0 28 91 89 100 100